FW1140 Weather Reports


time (UTC)temp
C
wind
direction
speed
KPH
gust
KPH
rain 1hr
cm
rain 24hr
cm
rain mn
cm
humidity
%
barometer
mb
20260901040028 18 250 1.6 6.4 0.00 0.00 0.00 76 1009.2
20260901034557 18 236 1.6 6.4 0.00 0.00 0.00 77 1009.0
20260901033055 20 240 4.8 11.3 0.00 0.00 0.00 74 1008.8
20260901031527 20 276 3.2 9.7 0.00 0.00 0.00 76 1008.8
20260901030013 18 233 1.6 6.4 0.00 0.00 0.00 81 1008.9
20260901024502 18 248 1.6 4.8 0.00 0.00 0.00 83 1008.9
20260901023029 18 238 0.0 4.8 0.00 0.00 0.00 82 1008.8
20260901021503 17 231 1.6 4.8 0.00 0.00 0.00 82 1008.6
20260901020006 18 236 0.0 3.2 0.00 0.00 0.00 82 1008.4
20260901014524 18 236 0.0 4.8 0.00 0.00 0.00 81 1008.2
20260901013025 19 259 1.6 4.8 0.00 0.00 0.00 79 1007.9
20260901011558 19 231 0.0 6.4 0.00 0.00 0.00 78 1007.9
20260901010013 20 233 1.6 4.8 0.00 0.00 0.00 74 1007.9
20260901004538 21 231 0.0 4.8 0.00 0.00 0.00 70 1007.8
20260901003044 22 201 0.0 4.8 0.00 0.00 0.00 67 1007.8
20260901001548 23 216 1.6 6.4 0.00 0.00 0.00 61 1007.8
20260901000037 25 186 0.0 4.8 0.00 0.00 0.00 56 1007.8
20260831234547 25 165 1.6 4.8 0.00 0.00 0.00 54 1007.7
20260831233105 -17 0.0 0.0 0.00 0.00 0.00 1008.1
20260831231533 -17 0.0 0.0 0.00 0.00 0.00 1008.1
20260831230104 -17 0.0 0.0 0.00 0.00 0.00 1008.1
20260831224558 -17 0.0 0.0 0.00 0.00 0.00 1008.0
20260831223025 -17 0.0 0.0 0.00 0.00 0.00 1008.0
20260831221519 29 216 1.6 11.3 0.00 0.00 0.00 42 1008.0
20260831220052 30 198 3.2 9.7 0.00 0.00 0.00 38 1007.9
20260831214509 29 236 3.2 9.7 0.00 0.00 0.00 38 1008.0
20260831213105 29 251 3.2 8.0 0.00 0.00 0.00 35 1007.9
20260831211525 30 269 3.2 9.7 0.00 0.00 0.00 36 1007.9
20260831210017 31 290 3.2 9.7 0.00 0.00 0.00 38 1008.0
20260831204555 31 273 3.2 11.3 0.00 0.00 0.00 38 1008.0
20260831203034 30 276 4.8 11.3 0.00 0.00 0.00 30 1008.1
20260831201517 30 203 4.8 12.9 0.00 0.00 0.00 38 1008.2
20260831200038 31 252 4.8 14.5 0.00 0.00 0.00 39 1008.2
20260831194523 31 259 4.8 16.1 0.00 0.00 0.00 37 1008.2
20260831193011 31 248 4.8 9.7 0.00 0.00 0.00 41 1008.2
20260831191535 31 257 1.6 9.7 0.00 0.00 0.00 44 1008.4
20260831190012 31 308 3.2 9.7 0.00 0.00 0.00 46 1008.4
20260831184504 30 350 3.2 9.7 0.00 0.00 0.00 47 1008.4
20260831183010 29 37 1.6 8.0 0.00 0.00 0.00 47 1008.3
20260831181509 30 57 3.2 8.0 0.00 0.00 0.00 47 1008.3
20260831180037 28 298 3.2 9.7 0.00 0.00 0.00 50 1008.4
20260831174550 28 330 1.6 8.0 0.00 0.00 0.00 48 1008.4
20260831173049 28 360 1.6 8.0 0.00 0.00 0.00 45 1008.6
20260831171526 27 311 1.6 8.0 0.00 0.00 0.00 49 1008.7
20260831170044 27 335 1.6 9.7 0.00 0.00 0.00 51 1008.8
20260831164505 26 290 4.8 9.7 0.00 0.00 0.00 49 1008.8
20260831163033 25 326 4.8 11.3 0.00 0.00 0.00 56 1008.7
20260831161550 23 345 3.2 11.3 0.00 0.00 0.00 60 1008.9
20260831160002 25 335 8.0 14.5 0.00 0.00 0.00 59 1008.9
20260831154531 23 285 6.4 12.9 0.00 0.00 0.00 63 1008.7
20260831153049 23 331 8.0 17.7 0.00 0.00 0.00 66 1008.7
20260831151542 23 274 8.0 16.1 0.00 0.00 0.00 65 1008.5
20260831150046 22 354 8.0 19.3 0.00 0.00 0.00 70 1008.5
20260831144557 22 330 6.4 14.5 0.00 0.00 0.00 71 1008.6
20260831143059 21 340 6.4 14.5 0.00 0.00 0.00 74 1008.5
20260831141525 21 324 4.8 11.3 0.00 0.00 0.00 78 1008.5
20260831140042 20 307 4.8 14.5 0.00 0.00 0.00 78 1008.4
20260831134530 20 288 4.8 9.7 0.00 0.00 0.00 77 1008.0
20260831133014 20 331 6.4 17.7 0.00 0.00 0.00 76 1007.5
20260831131516 20 316 8.0 16.1 0.00 0.00 0.00 78 1007.0
20260831130016 19 296 6.4 16.1 0.00 0.00 0.00 79 1007.1
20260831124523 18 300 6.4 14.5 0.00 0.00 0.00 79 1007.1
20260831123043 18 292 4.8 11.3 0.00 0.00 0.00 80 1006.9
20260831121523 18 259 3.2 11.3 0.00 0.00 0.00 81 1006.6
20260831120032 17 289 3.2 8.0 0.00 0.00 0.00 82 1006.3
20260831114518 17 295 1.6 8.0 0.00 0.00 0.00 80 1005.8
20260831113032 18 307 3.2 9.7 0.00 0.00 0.00 79 1005.6
20260831111525 18 329 3.2 11.3 0.00 0.00 0.00 76 1005.3
20260831110058 19 291 4.8 11.3 0.00 0.00 0.00 75 1005.1
20260831104527 20 288 4.8 11.3 0.00 0.00 0.00 75 1004.8
20260831103027 20 287 4.8 12.9 0.00 0.00 0.00 76 1004.6
20260831101512 20 238 6.4 16.1 0.00 0.00 0.00 76 1004.4
20260831100012 21 309 6.4 17.7 0.00 0.00 0.00 79 1004.3
20260831094530 21 294 6.4 16.1 0.00 0.00 0.00 82 1004.0
20260831093051 21 252 8.0 16.1 0.00 0.00 0.00 83 1003.9
20260831091602 21 287 6.4 17.7 0.00 0.00 0.00 86 1003.9
20260831090049 21 283 6.4 12.9 0.00 0.00 0.00 90 1003.6
20260831084606 21 268 3.2 11.3 0.00 0.00 0.00 91 1003.7
20260831083019 -17 0.0 0.0 0.00 0.00 0.00 1003.5
20260831081557 -17 0.0 0.0 0.00 0.00 0.00 1003.4
20260831080005 -17 0.0 0.0 0.00 0.00 0.00 1003.1
20260831074533 -17 0.0 0.0 0.00 0.00 0.00 1003.0
20260831073019 -17 0.0 0.0 0.00 0.00 0.00 1002.9
20260831071548 -17 0.0 0.0 0.00 0.00 0.00 1002.8
20260831070020 -17 0.0 0.0 0.00 0.00 0.00 1002.6
20260831064612 -17 0.0 0.0 0.00 0.00 0.00 1002.5
20260831063026 -17 0.0 0.0 0.00 0.00 0.00 1002.3
20260831061550 -17 0.0 0.0 0.00 0.00 0.00 1002.0
20260831060012 -17 0.0 0.0 0.00 0.00 0.00 1001.9
20260831054547 -17 0.0 0.0 0.00 0.00 0.00 1001.7
20260831053047 -17 0.0 0.0 0.00 0.00 0.00 1001.5
20260831051619 -17 0.0 0.0 0.00 0.00 0.00 1001.4
20260831050026 23 216 4.8 9.7 0.00 0.00 0.00 93 1001.4